Theta_e
347 347 345 344 343 343 345 347 347 350 350 349 347 345 344 342 341 339 338 330 326 327 329 331 332 333 337 340 336 334 332 330 328 327 327 325 325 325 325 325 325 324 324
349 347 346 346 345 346 349 351 353 353 354 347 343 345 342 341 340 337 334 331 326 326 327 329 330 332 334 336 336 334 333 331 330 329 329 329 328 328 327 326 327 327 326
352 351 347 345 346 351 347 346 342 339 337 337 338 339 339 339 335 334 331 327 326 327 324 326 329 332 334 333 336 335 334 333 332 331 331 330 329 329 327 327 327 327 326
353 353 349 347 350 348 340 338 336 333 332 335 334 337 334 336 336 331 328 324 323 322 324 324 326 328 331 332 332 332 332 332 332 332 331 330 329 329 328 326 325 324 325
350 352 350 350 347 342 337 334 332 333 333 333 332 333 334 333 332 328 325 324 323 321 322 324 322 321 322 322 321 322 323 325 326 327 326 325 325 325 325 324 324 323 323
349 351 352 346 347 339 334 335 332 333 330 334 333 334 331 331 329 325 323 322 321 322 322 323 323 321 318 316 316 317 319 322 322 323 324 324 325 324 324 323 323 323 323
351 354 350 345 347 341 335 331 332 332 331 333 328 327 324 327 324 322 322 320 320 320 320 320 320 320 320 319 318 315 318 319 320 322 323 322 323 323 323 323 323 323 323
353 353 349 344 343 338 335 331 330 327 329 326 321 321 317 321 321 321 320 319 319 319 319 320 320 320 320 318 317 314 315 317 317 317 319 321 321 322 321 321 321 321 321
353 346 347 344 340 336 332 328 328 327 324 321 319 318 314 312 316 319 319 318 318 317 318 319 319 319 320 318 318 317 315 314 315 317 317 319 320 320 319 319 319 318 318
347 347 345 344 339 339 334 328 332 329 327 318 318 320 322 320 312 309 315 317 318 318 319 318 319 319 320 319 319 318 317 316 317 317 318 318 319 320 321 320 319 316 315
349 345 341 344 338 342 332 333 331 325 322 320 320 320 320 317 317 311 308 311 316 317 318 318 318 319 319 318 318 319 318 314 315 316 315 316 318 319 319 319 319 319 318
345 344 340 338 337 332 330 325 322 321 323 325 323 321 317 314 312 312 311 313 312 315 317 318 318 319 320 318 318 321 315 314 315 314 315 315 316 317 317 318 318 318 316
336 336 337 333 328 325 324 321 322 328 327 324 324 318 318 316 316 315 313 312 310 313 314 315 317 318 317 319 317 318 316 316 316 314 313 313 314 315 315 316 316 315 314
340 338 332 327 324 323 323 323 326 326 326 324 323 323 319 318 318 317 314 312 308 310 312 313 315 315 316 315 316 315 315 317 315 314 313 312 313 313 313 314 314 313 312
329 326 323 322 322 323 323 326 325 326 324 324 324 324 321 320 319 318 318 315 311 305 306 312 310 318 315 316 317 317 316 314 314 314 313 312 311 310 311 312 312 312 312
325 324 322 321 321 322 326 327 325 326 325 323 322 323 322 321 320 318 317 315 314 310 306 310 311 314 316 314 315 314 314 314 314 313 311 310 309 310 310 311 311 311 311
324 320 319 318 320 324 324 326 325 324 323 322 323 322 321 322 317 316 315 315 312 312 306 309 311 314 312 311 312 313 313 312 312 311 309 309 308 308 309 309 310 310 310
322 320 320 322 322 323 324 323 322 321 320 319 319 318 317 315 318 319 317 317 316 315 305 303 305 305 310 311 310 309 307 306 306 310 308 308 308 309 308 307 308 308 308
328 327 325 326 326 325 323 322 321 320 319 318 318 318 317 318 317 315 315 313 313 311 311 309 303 306 305 306 304 305 304 309 307 308 308 307 309 309 306 306 306 306 306
327 326 327 326 325 322 321 321 320 320 320 319 319 319 318 315 314 312 309 308 306 304 302 299 298 299 301 303 304 302 302 304 304 305 306 307 307 308 307 306 306 307 307
327 326 326 325 325 322 313 316 319 319 319 318 317 315 313 308 304 305 303 300 299 297 296 296 296 298 298 298 299 302 301 303 304 306 303 305 306 307 309 307 308 308 307
327 326 325 323 322 311 300 301 306 316 315 313 312 312 311 307 303 301 299 300 300 298 296 297 296 295 295 297 297 297 297 301 295 305 302 304 306 305 309 311 306 307 306
327 325 323 320 316 310 298 298 300 313 313 311 308 306 304 302 300 299 299 299 299 299 298 298 295 295 295 297 297 296 296 296 298 301 302 301 306 305 309 310 306 306 306
323 323 319 317 314 304 297 297 298 310 311 307 303 301 300 299 298 298 299 297 297 298 299 299 299 299 299 300 300 301 299 298 300 303 305 298 304 304 307 309 305 305 304
320 318 316 315 312 306 296 296 298 309 307 303 301 299 300 298 295 294 298 295 295 296 298 299 297 298 297 298 299 298 297 296 295 299 305 298 302 300 303 305 306 305 304
316 315 313 312 302 305 295 295 296 305 302 300 301 300 296 295 294 293 297 295 292 295 296 297 297 298 300 301 300 301 300 296 296 297 302 300 300 299 297 306 304 305 306
Wind_Speed
8 8 7 8 7 7 6 7 7 6 7 9 9 10 10 8 9 6 6 9 6 10 13 16 17 18 16 16 16 16 17 15 14 14 13 12 12 12 12 12 12 12 12
8 9 9 9 9 7 4 4 0 3 5 9 8 9 9 8 8 8 8 7 9 8 11 14 15 17 17 15 16 17 18 18 17 16 16 16 15 15 14 14 13 14 14
12 11 10 10 9 4 3 3 6 7 5 6 9 9 8 9 7 8 8 8 6 12 5 7 11 11 13 13 18 18 18 20 20 19 18 16 18 17 15 13 13 14 15
13 11 10 9 2 3 3 5 5 3 4 6 10 7 7 9 10 8 9 7 7 7 5 1 5 5 5 7 8 11 12 15 18 19 17 17 18 18 15 14 13 13 17
15 13 10 8 7 4 7 2 3 2 7 9 8 8 9 7 10 8 8 9 8 7 6 10 4 6 8 6 5 6 7 8 10 8 10 11 12 13 13 14 15 17 20
15 13 10 8 11 8 7 4 3 5 4 9 9 6 7 5 8 8 9 8 6 6 6 5 5 8 6 2 3 5 8 10 12 13 13 14 15 13 16 16 17 19 18
9 11 12 11 11 8 6 5 4 7 5 5 4 6 8 8 9 9 7 7 7 7 6 6 6 5 5 10 8 5 11 14 15 17 17 17 17 18 14 16 16 18 21
17 12 8 10 12 7 6 4 5 5 6 6 3 4 4 8 9 8 6 7 8 7 8 9 8 7 8 8 8 6 11 13 14 16 19 19 18 19 14 16 17 18 19
4 3 7 9 11 9 11 10 9 9 6 4 7 5 5 6 3 6 8 8 8 7 8 8 9 9 9 9 10 11 11 9 14 16 17 19 21 18 17 19 20 18 20
4 8 10 8 11 9 11 10 9 10 8 6 5 9 9 8 6 7 6 8 8 9 10 9 9 10 11 10 12 13 14 14 14 15 17 19 22 19 21 19 20 18 17
10 8 7 10 11 9 8 7 9 10 6 3 8 7 6 6 8 8 11 7 9 9 10 10 10 9 11 9 9 13 6 9 13 13 16 19 22 23 22 20 20 21 20
7 11 12 11 10 10 8 6 8 7 7 9 7 6 7 6 7 8 10 11 11 10 10 8 9 5 5 8 11 10 6 7 13 15 17 18 19 21 20 21 20 20 19
5 8 8 8 8 8 7 6 5 9 9 8 7 6 7 7 7 8 10 11 12 10 6 5 11 6 7 4 7 11 10 8 13 13 16 18 19 19 20 21 19 18 18
6 2 5 5 5 6 5 5 7 8 7 6 7 7 7 7 8 9 10 11 12 12 9 8 7 13 7 3 5 9 11 10 13 12 14 19 20 20 20 22 20 17 18
4 5 7 9 8 8 8 11 6 6 4 5 6 8 9 9 10 10 10 11 12 12 12 10 10 10 6 4 7 8 11 11 16 12 13 18 19 20 20 19 17 17 18
6 7 6 6 3 4 7 5 5 6 5 6 7 8 9 10 11 11 10 9 7 10 13 12 10 8 7 9 11 7 12 15 14 16 14 17 16 16 16 16 16 18 19
6 6 6 5 4 5 3 5 4 5 6 7 9 10 11 11 10 11 9 8 8 8 10 8 9 10 8 9 9 8 9 8 10 11 14 15 14 14 16 17 19 19 20
6 5 4 5 4 3 2 4 6 6 7 8 9 9 10 9 11 8 9 11 11 11 6 12 8 8 13 9 6 6 5 7 11 17 11 11 14 15 16 16 17 17 16
7 6 5 2 1 2 3 5 6 7 7 8 9 10 11 12 13 11 12 12 8 7 9 8 6 7 7 6 8 9 8 12 5 10 13 14 16 17 13 15 15 16 16
5 6 3 2 2 4 6 6 7 7 9 9 10 9 10 10 10 12 11 10 8 8 9 8 7 7 6 7 7 7 7 3 6 4 9 10 12 13 15 15 15 15 14
3 4 3 2 2 4 11 10 10 10 9 10 7 7 7 9 8 10 7 8 8 6 5 6 8 8 8 6 9 2 6 5 3 4 5 8 7 7 5 14 9 3 6
4 1 2 4 6 8 12 16 14 8 8 8 8 8 10 8 9 9 11 13 11 9 9 7 7 7 7 6 5 5 5 6 2 3 6 8 5 7 3 4 2 4 4
2 2 4 5 7 9 14 14 15 9 8 8 9 9 9 8 8 9 12 14 11 10 9 8 8 7 7 6 4 5 5 6 5 5 8 8 4 4 4 3 3 3 5
4 3 5 5 7 9 13 14 17 11 8 7 7 5 6 6 9 12 13 8 8 8 7 7 7 9 8 8 9 8 8 5 6 7 7 5 3 4 5 3 3 5 5
4 5 5 6 5 9 11 14 17 8 8 7 6 3 6 8 11 12 13 10 10 9 6 6 6 9 12 12 11 5 5 4 3 5 2 2 2 4 6 3 3 4 4
6 5 6 7 7 9 11 12 16 8 8 7 6 4 11 9 10 10 11 8 9 9 11 10 8 7 5 4 6 3 0 2 3 3 3 3 2 2 3 1 5 6 4
Wind_Direction
229 229 234 240 240 226 228 245 253 268 273 255 262 253 260 271 284 281 289 156 230 269 274 273 270 267 259 231 230 237 240 238 242 240 249 251 255 265 274 287 295 301 311
227 233 227 230 231 222 229 252 287 295 308 298 277 264 276 272 267 290 289 290 186 248 268 267 267 264 263 237 228 238 241 237 243 245 246 251 259 268 270 278 287 289 291
224 236 231 232 221 191 239 107 44 36 355 330 288 283 265 277 275 263 275 287 281 209 217 268 272 281 273 260 232 240 240 244 245 251 256 261 258 259 263 277 283 287 285
225 215 233 227 126 93 74 60 62 40 295 272 262 253 271 263 268 276 269 283 291 293 161 86 293 276 309 296 315 300 282 264 264 258 263 263 254 254 259 263 275 282 283
220 215 222 186 142 175 134 210 94 236 257 259 260 275 262 267 270 273 275 271 267 269 291 110 97 70 51 41 11 340 322 310 313 294 269 263 259 261 261 273 275 283 286
219 212 211 165 187 170 144 192 201 241 214 258 251 246 269 274 263 257 256 251 254 252 250 276 219 152 124 58 329 320 314 306 300 290 279 274 274 273 270 273 281 289 287
249 201 201 180 182 174 150 174 225 242 269 235 273 248 241 232 256 253 230 250 239 233 265 252 265 276 204 181 218 253 307 301 296 290 284 281 278 270 278 275 280 287 296
229 243 208 179 171 157 145 140 201 218 199 168 227 266 265 206 221 227 247 246 248 265 249 238 266 268 279 288 302 325 285 298 304 304 290 279 270 271 265 274 282 279 289
271 168 235 205 158 173 167 181 197 214 223 181 211 243 270 235 315 215 224 255 265 255 252 255 251 259 260 268 283 262 246 279 286 297 298 284 273 279 276 274 274 285 289
238 173 207 219 173 172 182 192 191 227 208 185 189 232 262 297 289 283 199 224 238 246 252 264 263 248 253 255 268 271 260 267 279 288 297 295 291 289 292 294 284 271 279
168 174 173 188 190 188 224 195 187 192 180 204 225 234 231 252 240 270 280 275 213 226 240 246 257 259 268 274 271 270 242 258 278 280 293 293 292 286 283 278 269 273 280
188 177 182 184 197 196 210 157 170 167 199 217 244 249 248 250 249 241 257 259 260 263 254 259 280 265 272 274 289 284 243 268 277 285 291 292 291 288 285 279 275 268 284
225 209 188 174 171 177 165 141 158 195 203 222 219 250 247 261 272 277 279 274 272 272 273 266 270 257 236 262 285 311 279 249 251 276 286 287 286 284 282 280 271 275 278
310 334 111 128 142 135 148 159 199 211 200 215 234 251 275 263 257 263 269 280 281 277 274 249 268 275 284 316 266 282 275 266 260 258 268 281 282 282 283 280 270 274 279
59 95 119 127 143 169 184 189 212 211 212 221 239 243 256 274 271 271 269 271 277 289 292 292 290 298 308 272 254 292 299 276 276 271 267 274 284 284 280 280 263 272 280
62 80 51 76 102 183 206 187 181 197 230 250 253 260 262 269 274 269 273 276 273 274 276 284 276 276 311 315 309 300 281 266 282 278 261 267 277 279 282 274 271 273 276
89 88 95 146 198 193 198 212 257 288 256 259 262 264 263 269 273 284 298 285 283 290 290 281 310 323 324 289 272 271 279 281 292 267 257 259 269 279 280 279 275 276 277
99 96 118 209 202 193 229 259 259 285 270 272 275 275 282 280 284 281 300 295 288 301 309 280 271 270 274 320 311 288 277 300 285 269 262 243 261 269 273 277 275 275 274
120 138 152 115 184 246 273 280 290 295 287 281 281 285 292 298 297 298 304 307 314 295 276 273 288 300 293 271 278 269 272 279 289 282 262 252 262 261 265 268 269 267 266
112 119 127 92 10 327 320 316 304 297 293 294 300 308 310 309 319 322 311 306 313 326 327 318 307 302 300 295 276 267 273 278 263 274 286 265 272 272 245 256 263 263 263
75 93 123 95 10 348 31 343 318 300 316 312 318 305 315 7 315 335 318 331 323 304 296 286 279 282 296 317 303 243 248 255 280 281 286 273 291 268 229 229 254 278 313
115 153 73 25 44 56 10 4 350 332 321 309 315 323 329 308 351 332 324 306 293 290 300 305 301 300 303 306 307 317 333 313 297 256 291 301 303 277 320 319 53 287 303
92 90 64 79 79 64 19 360 337 307 312 319 330 330 337 359 347 332 316 300 291 291 272 296 308 311 299 297 294 283 265 269 262 278 282 301 281 315 297 127 81 336 329
122 97 87 93 89 60 17 348 329 280 303 353 359 352 341 332 37 339 320 325 303 308 320 310 301 297 292 300 267 272 295 269 278 267 262 287 300 320 325 93 350 316 344
112 99 97 85 77 68 27 349 334 322 14 344 332 43 342 356 6 342 313 341 332 324 325 311 277 307 298 282 276 280 263 243 252 255 132 259 352 319 321 359 299 354 359
114 111 96 89 59 78 48 6 353 347 357 345 355 38 74 16 342 336 322 343 326 340 335 335 326 317 313 296 280 341 38 226 262 310 194 259 104 13 323 96 39 10 356